Location: Fort Worth, Tx
(32.7431°N, 97.3695°W)
Time: 11:19:22
(UTC-04:00)

Tiangong - Visible Passes

Search period start: 31 May 2023 00:00
Search period end: 10 June 2023 00:00
Orbit: 386 x 392 km, 41.5° (Epoch: 31 May)

Date Brightness Start Highest point End Pass type
(mag) Time Alt. Az. Time Alt. Az. Time Alt. Az.
31 May -1.2 05:34:35 39° SE 05:34:35 39° SE 05:37:25 10° ENE visible
01 Jun -1.5 06:11:13 22° W 06:13:02 50° NNW 06:16:10 10° NE visible
02 Jun -1.2 05:15:29 48° ENE 05:15:29 48° ENE 05:17:55 10° ENE visible
02 Jun 0.0 06:49:18 10° WNW 06:51:55 22° NNW 06:54:32 10° NE visible
03 Jun -0.6 05:51:57 20° WNW 05:53:25 30° NNW 05:56:18 10° NE visible
04 Jun -0.2 04:56:04 30° NNE 04:56:04 30° NNE 04:58:02 10° NE visible
04 Jun 0.4 06:30:02 10° NW 06:32:20 18° N 06:34:38 10° NE visible
05 Jun 0.1 05:32:23 17° NW 05:33:41 21° NNW 05:36:14 10° NE visible
06 Jun 0.6 04:36:24 20° NNE 04:36:24 20° NNE 04:37:52 10° NE visible
06 Jun 0.6 06:10:26 10° NW 06:12:35 17° N 06:14:45 10° NE visible
07 Jun 0.4 05:12:38 15° NNW 05:13:49 18° N 05:16:05 10° NE visible
07 Jun 0.5 06:48:58 10° NW 06:51:27 20° N 06:53:56 10° ENE visible
08 Jun 1.1 04:16:37 15° NNE 04:16:37 15° NNE 04:17:32 10° NE visible
08 Jun 0.7 05:50:24 10° NW 05:52:39 17° N 05:54:54 10° NE visible
09 Jun 0.6 04:52:53 15° NNW 04:53:47 17° N 04:55:57 10° NE visible
09 Jun 0.0 06:28:33 10° NW 06:31:20 27° NNE 06:34:08 10° ENE visible
